Time,TemperatureF,DewpointF,PressureIn,WindDirection,WindDirectionDegrees,WindSpeedMPH,WindSpeedGustMPH,Humidity,HourlyPrecipIn,Conditions,Clouds,dailyrainin,SoftwareType,DateUTC
2013-05-07 00:11:00,50.4,50.1,29.74,NNW,337,0.0,-999.0,99,-99.99,,,0.00,Acu-Link.com,2013-05-07 04:11:00,
2013-05-07 00:26:00,50.5,50.2,29.74,SE,135,0.0,-999.0,99,-99.99,,,0.00,Acu-Link.com,2013-05-07 04:26:00,
2013-05-07 00:41:00,50.7,50.4,29.74,ESE,112,0.0,-999.0,99,-99.99,,,0.00,Acu-Link.com,2013-05-07 04:41:00,
2013-05-07 00:56:00,51.1,50.8,29.74,NNE,22,0.0,-999.0,99,-99.99,,,0.00,Acu-Link.com,2013-05-07 04:56:00,
2013-05-07 01:11:00,51.3,51.0,29.74,ESE,112,0.0,-999.0,99,-99.99,,,0.00,Acu-Link.com,2013-05-07 05:11:00,
2013-05-07 01:26:00,51.3,51.0,29.74,ESE,112,0.0,-999.0,99,-99.99,,,0.00,Acu-Link.com,2013-05-07 05:26:00,
2013-05-07 01:42:00,51.3,51.0,29.74,NE,45,0.0,-999.0,99,-99.99,,,0.00,Acu-Link.com,2013-05-07 05:42:00,
2013-05-07 01:57:00,50.9,50.6,29.74,NNW,337,0.0,-999.0,99,-99.99,,,0.00,Acu-Link.com,2013-05-07 05:57:00,
2013-05-07 02:12:00,50.7,50.4,29.74,NNW,337,0.0,-999.0,99,-99.99,,,0.00,Acu-Link.com,2013-05-07 06:12:00,
2013-05-07 02:27:00,50.0,49.7,29.73,SSE,157,0.0,-999.0,99,-99.99,,,0.00,Acu-Link.com,2013-05-07 06:27:00,
2013-05-07 02:42:00,49.3,49.0,29.72,SE,135,0.0,-999.0,99,-99.99,,,0.00,Acu-Link.com,2013-05-07 06:42:00,
2013-05-07 02:57:00,48.7,48.4,29.73,SE,135,0.0,-999.0,99,-99.99,,,0.00,Acu-Link.com,2013-05-07 06:57:00,
2013-05-07 03:12:00,49.1,48.8,29.73,SE,135,0.0,-999.0,99,-99.99,,,0.00,Acu-Link.com,2013-05-07 07:12:00,
2013-05-07 03:27:00,49.1,48.8,29.73,NNE,22,0.0,-999.0,99,-99.99,,,0.00,Acu-Link.com,2013-05-07 07:27:00,
2013-05-07 03:42:00,49.1,48.8,29.73,SSE,157,0.0,-999.0,99,-99.99,,,0.00,Acu-Link.com,2013-05-07 07:42:00,
2013-05-07 03:58:00,49.1,48.8,29.73,SSE,157,0.0,-999.0,99,-99.99,,,0.00,Acu-Link.com,2013-05-07 07:58:00,
2013-05-07 04:13:00,49.1,48.8,29.73,SSE,157,0.0,-999.0,99,-99.99,,,0.00,Acu-Link.com,2013-05-07 08:13:00,
2013-05-07 04:29:00,48.9,48.6,29.73,SSE,157,0.0,-999.0,99,-99.99,,,0.00,Acu-Link.com,2013-05-07 08:29:00,
2013-05-07 04:44:00,48.4,48.1,29.73,NNW,337,0.0,-999.0,99,-99.99,,,0.00,Acu-Link.com,2013-05-07 08:44:00,
2013-05-07 04:59:00,48.7,48.4,29.73,NNE,22,0.0,-999.0,99,-99.99,,,0.00,Acu-Link.com,2013-05-07 08:59:00,
2013-05-07 05:14:00,48.0,47.7,29.74,NNW,337,0.0,-999.0,99,-99.99,,,0.00,Acu-Link.com,2013-05-07 09:14:00,
2013-05-07 05:29:00,48.0,47.7,29.74,SE,135,0.0,-999.0,99,-99.99,,,0.00,Acu-Link.com,2013-05-07 09:29:00,
2013-05-07 05:44:00,47.5,47.2,29.74,SE,135,0.0,-999.0,99,-99.99,,,0.00,Acu-Link.com,2013-05-07 09:44:00,
2013-05-07 06:00:00,46.9,46.6,29.75,SSE,157,0.0,-999.0,99,-99.99,,,0.00,Acu-Link.com,2013-05-07 10:00:00,
2013-05-07 06:15:00,46.6,46.3,29.75,SE,135,0.0,-999.0,99,-99.99,,,0.00,Acu-Link.com,2013-05-07 10:15:00,
2013-05-07 06:30:00,46.8,46.5,29.76,NNE,22,0.0,-999.0,99,-99.99,,,0.00,Acu-Link.com,2013-05-07 10:30:00,
2013-05-07 06:45:00,47.3,47.0,29.77,NNE,22,0.0,-999.0,99,-99.99,,,0.00,Acu-Link.com,2013-05-07 10:45:00,
2013-05-07 07:00:00,47.3,47.0,29.78,NNE,22,0.0,-999.0,99,-99.99,,,0.00,Acu-Link.com,2013-05-07 11:00:00,
2013-05-07 07:15:00,47.3,47.0,29.78,ENE,67,0.0,-999.0,99,-99.99,,,0.00,Acu-Link.com,2013-05-07 11:15:00,
2013-05-07 07:30:00,47.3,47.0,29.78,SE,135,0.0,-999.0,99,-99.99,,,0.00,Acu-Link.com,2013-05-07 11:30:00,
2013-05-07 07:45:00,46.9,46.6,29.78,SE,135,0.0,-999.0,99,-99.99,,,0.00,Acu-Link.com,2013-05-07 11:45:00,
2013-05-07 08:00:00,47.3,47.0,29.78,SE,135,0.0,-999.0,99,-99.99,,,0.00,Acu-Link.com,2013-05-07 12:00:00,
2013-05-07 08:16:00,47.7,47.4,29.78,SE,135,0.0,-999.0,99,-99.99,,,0.00,Acu-Link.com,2013-05-07 12:16:00,
2013-05-07 08:31:00,48.6,48.3,29.78,SE,135,0.0,-999.0,99,-99.99,,,0.00,Acu-Link.com,2013-05-07 12:31:00,
2013-05-07 08:46:00,49.1,48.8,29.79,ESE,112,0.0,-999.0,99,-99.99,,,0.00,Acu-Link.com,2013-05-07 12:46:00,
2013-05-07 09:01:00,49.6,49.3,29.79,SSE,157,0.0,-999.0,99,-99.99,,,0.00,Acu-Link.com,2013-05-07 13:01:00,
2013-05-07 09:16:00,50.2,49.9,29.79,SSE,157,0.0,-999.0,99,-99.99,,,0.00,Acu-Link.com,2013-05-07 13:16:00,
2013-05-07 09:31:00,50.9,50.6,29.80,SSE,157,0.0,-999.0,99,-99.99,,,0.00,Acu-Link.com,2013-05-07 13:31:00,
2013-05-07 09:46:00,51.4,51.1,29.80,SE,135,0.0,-999.0,99,-99.99,,,0.00,Acu-Link.com,2013-05-07 13:46:00,
2013-05-07 10:01:00,52.5,52.2,29.80,NNE,22,0.0,-999.0,99,-99.99,,,0.00,Acu-Link.com,2013-05-07 14:01:00,
2013-05-07 10:16:00,53.4,53.1,29.80,SE,135,1.7,-999.0,99,-99.99,,,0.00,Acu-Link.com,2013-05-07 14:16:00,
2013-05-07 10:32:00,54.3,54.0,29.81,SSE,157,0.0,-999.0,99,-99.99,,,0.00,Acu-Link.com,2013-05-07 14:32:00,
2013-05-07 10:47:00,55.4,55.1,29.80,SW,225,1.7,-999.0,99,-99.99,,,0.00,Acu-Link.com,2013-05-07 14:47:00,
2013-05-07 11:02:00,57.6,56.5,29.80,NNW,337,1.7,-999.0,96,-99.99,,,0.00,Acu-Link.com,2013-05-07 15:02:00,
2013-05-07 11:17:00,59.7,54.2,29.80,WNW,292,1.1,-999.0,82,-99.99,,,0.00,Acu-Link.com,2013-05-07 15:17:00,
2013-05-07 11:32:00,59.0,55.4,29.81,SSE,157,0.0,-999.0,88,-99.99,,,0.00,Acu-Link.com,2013-05-07 15:32:00,
2013-05-07 11:47:00,61.2,57.6,29.80,SSE,157,1.7,-999.0,88,-99.99,,,0.00,Acu-Link.com,2013-05-07 15:47:00,
2013-05-07 12:02:00,64.4,54.4,29.80,NNW,337,2.2,-999.0,70,-99.99,,,0.00,Acu-Link.com,2013-05-07 16:02:00,
2013-05-07 12:17:00,64.2,55.7,29.80,WNW,292,2.7,-999.0,74,-99.99,,,0.00,Acu-Link.com,2013-05-07 16:17:00,
2013-05-07 12:32:00,66.6,55.7,29.79,NNW,337,2.2,-999.0,68,-99.99,,,0.00,Acu-Link.com,2013-05-07 16:32:00,
2013-05-07 12:48:00,66.4,55.1,29.79,NW,315,1.7,-999.0,67,-99.99,,,0.00,Acu-Link.com,2013-05-07 16:48:00,
2013-05-07 13:03:00,66.7,53.3,29.79,West,270,1.1,-999.0,62,-99.99,,,0.00,Acu-Link.com,2013-05-07 17:03:00,
2013-05-07 13:18:00,69.1,55.1,29.78,SSW,202,2.2,-999.0,61,-99.99,,,0.00,Acu-Link.com,2013-05-07 17:18:00,
2013-05-07 13:33:00,69.1,56.4,29.78,NNW,337,2.2,-999.0,64,-99.99,,,0.00,Acu-Link.com,2013-05-07 17:33:00,
2013-05-07 13:48:00,69.4,54.0,29.77,NNW,337,3.7,-999.0,58,-99.99,,,0.00,Acu-Link.com,2013-05-07 17:48:00,
2013-05-07 14:03:00,69.1,55.1,29.77,West,270,1.7,-999.0,61,-99.99,,,0.00,Acu-Link.com,2013-05-07 18:03:00,
2013-05-07 14:18:00,70.3,54.3,29.76,North,0,2.2,-999.0,57,-99.99,,,0.00,Acu-Link.com,2013-05-07 18:18:00,
2013-05-07 14:33:00,71.2,54.7,29.76,NNW,337,1.7,-999.0,56,-99.99,,,0.00,Acu-Link.com,2013-05-07 18:33:00,
2013-05-07 14:48:00,73.0,55.9,29.75,NW,315,1.1,-999.0,55,-99.99,,,0.00,Acu-Link.com,2013-05-07 18:48:00,
2013-05-07 15:04:00,72.5,56.4,29.75,South,180,3.2,-999.0,57,-99.99,,,0.00,Acu-Link.com,2013-05-07 19:04:00,
2013-05-07 15:19:00,72.5,57.3,29.74,WNW,292,1.1,-999.0,59,-99.99,,,0.00,Acu-Link.com,2013-05-07 19:19:00,
2013-05-07 15:34:00,73.8,58.6,29.73,NNW,337,2.2,-999.0,59,-99.99,,,0.00,Acu-Link.com,2013-05-07 19:34:00,
2013-05-07 15:49:00,73.8,57.1,29.73,NNW,337,2.2,-999.0,56,-99.99,,,0.00,Acu-Link.com,2013-05-07 19:49:00,
2013-05-07 16:04:00,76.5,55.9,29.72,West,270,2.2,-999.0,49,-99.99,,,0.00,Acu-Link.com,2013-05-07 20:04:00,
2013-05-07 16:19:00,75.0,53.4,29.72,WNW,292,2.2,-999.0,47,-99.99,,,0.00,Acu-Link.com,2013-05-07 20:19:00,
2013-05-07 16:34:00,74.7,54.8,29.71,SW,225,0.0,-999.0,50,-99.99,,,0.00,Acu-Link.com,2013-05-07 20:34:00,
2013-05-07 16:49:00,73.9,56.2,29.71,SW,225,1.7,-999.0,54,-99.99,,,0.00,Acu-Link.com,2013-05-07 20:49:00,
2013-05-07 17:04:00,78.3,54.6,29.71,SSE,157,2.2,-999.0,44,-99.99,,,0.00,Acu-Link.com,2013-05-07 21:04:00,
2013-05-07 17:20:00,75.6,53.9,29.71,ESE,112,2.7,-999.0,47,-99.99,,,0.00,Acu-Link.com,2013-05-07 21:20:00,
2013-05-07 17:35:00,78.8,54.4,29.71,ESE,112,3.2,-999.0,43,-99.99,,,0.00,Acu-Link.com,2013-05-07 21:35:00,
2013-05-07 17:50:00,80.6,56.6,29.71,SSE,157,1.7,-999.0,44,-99.99,,,0.00,Acu-Link.com,2013-05-07 21:50:00,
2013-05-07 18:05:00,78.1,55.0,29.71,SE,135,4.2,-999.0,45,-99.99,,,0.00,Acu-Link.com,2013-05-07 22:05:00,
2013-05-07 18:20:00,77.9,54.8,29.71,West,270,2.2,-999.0,45,-99.99,,,0.00,Acu-Link.com,2013-05-07 22:20:00,
2013-05-07 18:35:00,80.8,55.5,29.72,SSE,157,2.2,-999.0,42,-99.99,,,0.00,Acu-Link.com,2013-05-07 22:35:00,
2013-05-07 18:50:00,78.6,56.7,29.71,West,270,2.2,-999.0,47,-99.99,,,0.00,Acu-Link.com,2013-05-07 22:50:00,
2013-05-07 19:05:00,78.6,55.5,29.71,South,180,2.7,-999.0,45,-99.99,,,0.00,Acu-Link.com,2013-05-07 23:05:00,
2013-05-07 19:20:00,73.6,53.2,29.72,SW,225,2.7,-999.0,49,-99.99,,,0.00,Acu-Link.com,2013-05-07 23:20:00,
2013-05-07 19:36:00,72.5,53.9,29.73,SSE,157,3.7,-999.0,52,-99.99,,,0.00,Acu-Link.com,2013-05-07 23:36:00,
2013-05-07 19:51:00,70.0,53.1,29.74,ENE,67,1.7,-999.0,55,-99.99,,,0.00,Acu-Link.com,2013-05-07 23:51:00,
2013-05-07 20:06:00,68.4,52.6,29.74,NNW,337,2.2,-999.0,57,-99.99,,,0.00,Acu-Link.com,2013-05-08 00:06:00,
2013-05-07 20:21:00,67.5,53.1,29.74,SSE,157,1.1,-999.0,60,-99.99,,,0.00,Acu-Link.com,2013-05-08 00:21:00,
2013-05-07 20:36:00,66.4,53.0,29.75,SSE,157,0.0,-999.0,62,-99.99,,,0.00,Acu-Link.com,2013-05-08 00:36:00,
2013-05-07 20:51:00,64.0,56.3,29.76,SSE,157,0.0,-999.0,76,-99.99,,,0.00,Acu-Link.com,2013-05-08 00:51:00,
2013-05-07 21:07:00,61.9,56.7,29.76,SSE,157,0.0,-999.0,83,-99.99,,,0.00,Acu-Link.com,2013-05-08 01:07:00,
2013-05-07 21:22:00,60.8,55.9,29.77,ESE,112,0.0,-999.0,84,-99.99,,,0.00,Acu-Link.com,2013-05-08 01:22:00,
2013-05-07 21:37:00,59.7,55.8,29.78,NNW,337,0.0,-999.0,87,-99.99,,,0.00,Acu-Link.com,2013-05-08 01:37:00,
2013-05-07 21:52:00,58.5,56.2,29.78,NNW,337,0.0,-999.0,92,-99.99,,,0.00,Acu-Link.com,2013-05-08 01:52:00,
2013-05-07 22:07:00,58.1,56.1,29.80,NNW,337,0.0,-999.0,93,-99.99,,,0.00,Acu-Link.com,2013-05-08 02:07:00,
2013-05-07 22:22:00,57.6,55.6,29.80,SSE,157,0.0,-999.0,93,-99.99,,,0.00,Acu-Link.com,2013-05-08 02:22:00,
2013-05-07 22:37:00,57.0,55.9,29.80,SSE,157,0.0,-999.0,96,-99.99,,,0.00,Acu-Link.com,2013-05-08 02:37:00,
2013-05-07 22:53:00,56.7,55.6,29.81,SSE,157,0.0,-999.0,96,-99.99,,,0.00,Acu-Link.com,2013-05-08 02:53:00,
2013-05-07 23:08:00,56.1,55.0,29.81,SSE,157,0.0,-999.0,96,-99.99,,,0.00,Acu-Link.com,2013-05-08 03:08:00,
2013-05-07 23:23:00,55.6,54.8,29.81,SSE,157,0.0,-999.0,97,-99.99,,,0.00,Acu-Link.com,2013-05-08 03:23:00,
2013-05-07 23:38:00,55.0,54.2,29.81,NNE,22,0.0,-999.0,97,-99.99,,,0.00,Acu-Link.com,2013-05-08 03:38:00,
2013-05-07 23:53:00,54.7,53.9,29.81,SSE,157,0.0,-999.0,97,-99.99,,,0.00,Acu-Link.com,2013-05-08 03:53:00,